Location: Unspecified
(0.0000°N, 0.0000°E)
Time: 23:35:58
(UTC+02:00)

DELTA 2 R/B (1) - Visible Passes

Search period start: 21 October 2014 00:00
Search period end: 30 October 2014 23:00
Orbit: 792 x 803 km, 39.6° (Epoch: 21 October)

Date Brightness Start Highest point End Pass type
(mag) Time Alt. Az. Time Alt. Az. Time Alt. Az.
23 Oct 6.0 21:45:45 10° S 21:46:09 11° S 21:46:09 11° S visible
24 Oct 5.7 21:15:41 10° SSE 21:17:27 12° SSE 21:17:27 12° SSE visible
25 Oct 5.6 20:45:51 10° SSE 20:47:24 11° SE 20:48:48 10° SE visible
25 Oct 6.0 22:28:22 10° SW 22:29:37 17° SW 22:29:37 17° SW visible
26 Oct 4.8 20:57:47 10° SW 21:01:02 35° SSW 21:01:02 35° SSW visible
27 Oct 3.7 20:27:14 10° SW 20:32:30 59° SSE 20:32:30 59° SSE visible
28 Oct 3.8 19:56:41 10° SW 20:02:08 53° SE 20:04:01 37° E visible
28 Oct 6.4 21:44:13 10° W 21:44:50 12° W 21:44:50 12° W visible
29 Oct 4.0 19:26:10 10° SSW 19:31:31 46° SE 19:35:33 17° ENE visible
29 Oct 5.6 21:13:21 10° W 21:16:23 22° WNW 21:16:23 22° WNW visible
30 Oct 5.0 20:42:30 10° W 20:47:15 28° NW 20:47:56 28° NNW visible
